When you browse on this site, cookies collect data to enhance your experience and personalize the content and advertising you see.
Visit our Privacy Policy to learn more. By continuing to use the site, you agree to this use of cookies and data.
EN

Hourly Weather Kalnik

Today, 21 September, Monday

Time Temperature Precipitation Wind Pressure Humidity
00:00 +12°C° 0 mm 1 mps 751 mmHg 88%
01:00 +11°C° 0 mm 1 mps 752 mmHg 89%
02:00 +11°C° 0 mm 1 mps 751 mmHg 88%
03:00 +11°C° 0 mm 1 mps 751 mmHg 87%
04:00 +10°C° 0 mm 1 mps 751 mmHg 87%
05:00 +11°C° 0 mm 1 mps 751 mmHg 82%
06:00 +12°C° 0 mm 1 mps 751 mmHg 78%
07:00 +12°C° 0 mm 2 mps 751 mmHg 69%
08:00 +14°C° 0 mm 2 mps 751 mmHg 61%
09:00 +16°C° 0 mm 2 mps 751 mmHg 53%
10:00 +18°C° 0 mm 2 mps 751 mmHg 45%
11:00 +19°C° 0 mm 2 mps 751 mmHg 41%
12:00 +20°C° 0 mm 2 mps 751 mmHg 38%
13:00 +21°C° 0 mm 2 mps 751 mmHg 34%
14:00 +21°C° 0 mm 2 mps 751 mmHg 40%
15:00 +22°C° 0 mm 1 mps 750 mmHg 46%
16:00 +21°C° 0 mm 1 mps 750 mmHg 52%
17:00 +19°C° 0 mm 1 mps 749 mmHg 57%
18:00 +18°C° 0 mm 1 mps 749 mmHg 61%
19:00 +15°C° 0 mm 1 mps 749 mmHg 66%
20:00 +14°C° 0 mm 1 mps 749 mmHg 67%
21:00 +14°C° 0 mm 2 mps 749 mmHg 69%
22:00 +14°C° 0 mm 2 mps 749 mmHg 70%
23:00 +13°C° 0 mm 2 mps 749 mmHg 71%

Tomorrow, 22 September, Tuesday

Time Temperature Precipitation Wind Pressure Humidity
00:00 +13°C° 0 mm 2 mps 748 mmHg 72%
01:00 +12°C° 0 mm 2 mps 748 mmHg 73%
02:00 +12°C° 0 mm 2 mps 748 mmHg 74%
03:00 +12°C° 0 mm 2 mps 748 mmHg 76%
04:00 +10°C° 0 mm 2 mps 747 mmHg 77%
05:00 +12°C° 0 mm 2 mps 748 mmHg 75%
06:00 +13°C° 0 mm 2 mps 748 mmHg 74%
07:00 +14°C° 0 mm 2 mps 748 mmHg 72%
08:00 +16°C° 0 mm 3 mps 747 mmHg 66%
09:00 +18°C° 0 mm 3 mps 747 mmHg 59%
10:00 +21°C° 0 mm 3 mps 747 mmHg 53%
11:00 +22°C° 0 mm 3 mps 747 mmHg 49%
12:00 +23°C° 0 mm 4 mps 747 mmHg 46%
13:00 +26°C° 0 mm 4 mps 747 mmHg 42%
14:00 +25°C° 0 mm 4 mps 746 mmHg 45%
15:00 +25°C° 0 mm 3 mps 746 mmHg 47%
16:00 +25°C° 0 mm 3 mps 745 mmHg 50%
17:00 +22°C° 0 mm 3 mps 745 mmHg 54%
18:00 +20°C° 0 mm 3 mps 744 mmHg 57%
19:00 +19°C° 0 mm 4 mps 744 mmHg 60%
20:00 +18°C° 0 mm 4 mps 744 mmHg 61%
21:00 +18°C° 0 mm 4 mps 744 mmHg 62%
22:00 +18°C° 0 mm 4 mps 744 mmHg 62%
23:00 +17°C° 0 mm 4 mps 743 mmHg 63%

Day after tomorrow, 23 September, Wednesday

Time Temperature Precipitation Wind Pressure Humidity
00:00 +17°C° 0 mm 4 mps 743 mmHg 64%
01:00 +17°C° 0 mm 4 mps 743 mmHg 65%
02:00 +15°C° 0 mm 4 mps 743 mmHg 66%
03:00 +15°C° 0 mm 4 mps 743 mmHg 67%
04:00 +14°C° 0 mm 3 mps 742 mmHg 68%
05:00 +16°C° 0 mm 3 mps 742 mmHg 68%
06:00 +15°C° 0 mm 4 mps 742 mmHg 67%
07:00 +15°C° 0 mm 4 mps 742 mmHg 66%
08:00 +18°C° 0 mm 4 mps 742 mmHg 61%
09:00 +20°C° 0 mm 4 mps 742 mmHg 55%
10:00 +22°C° 0 mm 4 mps 742 mmHg 50%
11:00 +25°C° 0 mm 4 mps 742 mmHg 46%
12:00 +26°C° 0 mm 4 mps 742 mmHg 43%
13:00 +27°C° 0 mm 4 mps 742 mmHg 40%
14:00 +27°C° 0 mm 4 mps 741 mmHg 43%
15:00 +26°C° 0 mm 3 mps 741 mmHg 47%
16:00 +26°C° 0 mm 2 mps 741 mmHg 50%
17:00 +24°C° 0 mm 2 mps 741 mmHg 55%
18:00 +21°C° 0 mm 2 mps 741 mmHg 60%
19:00 +19°C° 0 mm 2 mps 740 mmHg 64%
20:00 +19°C° 0 mm 2 mps 740 mmHg 66%
21:00 +18°C° 0 mm 2 mps 740 mmHg 69%
22:00 +18°C° 0 mm 2 mps 740 mmHg 71%
23:00 +18°C° 0 mm 2 mps 740 mmHg 73%

24 September, Thursday

Time Temperature Precipitation Wind Pressure Humidity
00:00 +17°C° 0 mm 2 mps 740 mmHg 75%
01:00 +17°C° 0 mm 2 mps 740 mmHg 76%
02:00 +17°C° 0 mm 2 mps 740 mmHg 78%
03:00 +16°C° 0 mm 2 mps 740 mmHg 79%
04:00 +16°C° 0 mm 2 mps 740 mmHg 80%
05:00 +17°C° 0 mm 3 mps 740 mmHg 80%
06:00 +17°C° 0 mm 3 mps 740 mmHg 80%
07:00 +17°C° 0 mm 3 mps 740 mmHg 81%
08:00 +19°C° 0.1 mm 3 mps 741 mmHg 75%
09:00 +20°C° 0.1 mm 4 mps 741 mmHg 70%
10:00 +22°C° 0.1 mm 4 mps 741 mmHg 65%
11:00 +23°C° 0 mm 4 mps 741 mmHg 58%
12:00 +25°C° 0 mm 4 mps 741 mmHg 51%
13:00 +26°C° 0 mm 4 mps 741 mmHg 44%
14:00 +25°C° 0 mm 4 mps 741 mmHg 47%
15:00 +24°C° 0 mm 3 mps 741 mmHg 49%
16:00 +24°C° 0 mm 2 mps 741 mmHg 51%
17:00 +21°C° 0 mm 2 mps 741 mmHg 56%
18:00 +20°C° 0 mm 2 mps 741 mmHg 60%
19:00 +18°C° 0 mm 2 mps 742 mmHg 65%
20:00 +18°C° 0 mm 2 mps 742 mmHg 68%
21:00 +17°C° 0 mm 2 mps 742 mmHg 71%
22:00 +17°C° 0 mm 2 mps 742 mmHg 74%
23:00 +17°C° 0 mm 2 mps 742 mmHg 76%

25 September, Friday

Time Temperature Precipitation Wind Pressure Humidity
00:00 +16°C° 0 mm 2 mps 742 mmHg 77%
01:00 +16°C° 0 mm 2 mps 742 mmHg 79%
02:00 +16°C° 0 mm 2 mps 741 mmHg 79%
03:00 +16°C° 0 mm 2 mps 741 mmHg 79%
04:00 +15°C° 0 mm 2 mps 741 mmHg 79%
05:00 +16°C° 0 mm 3 mps 741 mmHg 78%
06:00 +16°C° 0 mm 3 mps 741 mmHg 77%
07:00 +17°C° 0 mm 4 mps 740 mmHg 76%
08:00 +19°C° 0 mm 4 mps 740 mmHg 69%
09:00 +21°C° 0 mm 5 mps 740 mmHg 62%
10:00 +23°C° 0 mm 6 mps 739 mmHg 56%
11:00 +24°C° 0 mm 6 mps 739 mmHg 55%
12:00 +24°C° 0 mm 6 mps 738 mmHg 54%
13:00 +26°C° 0 mm 7 mps 737 mmHg 54%
14:00 +24°C° 0 mm 6 mps 737 mmHg 56%
15:00 +24°C° 0 mm 6 mps 736 mmHg 59%
16:00 +23°C° 0 mm 5 mps 735 mmHg 61%
17:00 +22°C° 0.1 mm 5 mps 735 mmHg 64%
18:00 +21°C° 0.1 mm 5 mps 734 mmHg 66%
19:00 +21°C° 0.1 mm 5 mps 734 mmHg 68%
20:00 +20°C° 0.1 mm 6 mps 734 mmHg 72%
21:00 +19°C° 0.1 mm 6 mps 733 mmHg 76%
22:00 +19°C° 0.1 mm 6 mps 733 mmHg 79%
23:00 +19°C° 0.2 mm 6 mps 733 mmHg 81%

26 September, Saturday

Time Temperature Precipitation Wind Pressure Humidity
00:00 +19°C° 0.2 mm 6 mps 733 mmHg 82%
01:00 +17°C° 0.2 mm 6 mps 733 mmHg 84%
02:00 +17°C° 0.7 mm 6 mps 733 mmHg 85%
03:00 +16°C° 0.7 mm 6 mps 733 mmHg 86%
04:00 +15°C° 0.7 mm 6 mps 734 mmHg 87%
05:00 +14°C° 0.3 mm 6 mps 734 mmHg 87%
06:00 +13°C° 0.3 mm 5 mps 735 mmHg 87%
07:00 +12°C° 0.3 mm 4 mps 736 mmHg 87%
08:00 +13°C° 0 mm 4 mps 737 mmHg 85%
09:00 +13°C° 0 mm 3 mps 738 mmHg 83%
10:00 +13°C° 0 mm 3 mps 739 mmHg 81%
11:00 +14°C° 0 mm 2 mps 739 mmHg 77%
12:00 +15°C° 0 mm 2 mps 740 mmHg 73%
13:00 +15°C° 0 mm 1 mps 740 mmHg 69%
14:00 +15°C° 0 mm 1 mps 740 mmHg 67%
15:00 +16°C° 0 mm 1 mps 741 mmHg 66%
16:00 +16°C° 0 mm 1 mps 741 mmHg 65%
17:00 +15°C° 0 mm 2 mps 741 mmHg 68%
18:00 +14°C° 0 mm 2 mps 741 mmHg 71%
19:00 +12°C° 0 mm 3 mps 741 mmHg 75%
20:00 +12°C° 0 mm 3 mps 741 mmHg 76%
21:00 +12°C° 0 mm 4 mps 741 mmHg 77%
22:00 +12°C° 0 mm 4 mps 740 mmHg 78%
23:00 +12°C° 1.2 mm 5 mps 739 mmHg 83%
Show more